Location: Veytaux
(46.4185°N, 6.9320°E)
Time: 08:44:30
(UTC+00:00)

Cosmos 1025 Rocket - Pass Details

Date: 27 May 2022
Orbit: 593 x 618 km, 82.5° (Epoch: 01 July)

Event Time Altitude Azimuth Distance (km) Brightness Sun altitude
Exits shadow 01:00:16 45° 183° (S) 829 3.2 -19.3°
Maximum altitude 01:01:33 85° 99° (E) 612 2.9 -19.2°
Drops below altitude 10° 01:05:53 10° 10° (N) 1,953 6.8 -18.9°
Sets 01:08:06 0° 10° (N) 2,857 7.9 -18.7°
